Wind_Speed
43 44 45 45 45 45 45 44 43 43 43 42 42 41 39 38 37 36 35 34 33 30 28 27 26 25 26 27 26 25 24 23 23 22 21 23 23 22 22 22 22 22 21 21 20 19 20 22 25 29 32 35 39 41 44 44 43 42 41 39 37 36 36 34 34 33 32 31 30 29 26 23 23 23 21 16 15 16 14 15 16 17 18 18 16 15 16 16
41 41 42 42 43 44 44 44 44 44 44 43 43 42 41 39 38 38 36 35 33 31 28 27 26 25 26 26 25 24 24 23 23 22 21 22 22 22 22 23 23 22 21 20 18 17 16 18 22 26 30 33 36 39 41 43 43 42 41 40 39 37 36 35 34 33 33 33 32 30 27 26 25 25 23 19 18 18 17 16 16 17 18 18 18 17 17 17
41 41 41 41 41 41 41 42 43 44 44 44 44 43 42 41 40 39 37 36 34 32 29 27 26 25 25 26 24 24 23 23 23 22 20 21 21 21 22 22 22 21 19 18 17 15 13 14 17 21 26 29 32 35 38 40 41 42 40 40 39 36 34 35 34 33 34 33 33 31 29 27 26 26 24 22 22 21 20 18 16 17 18 18 18 18 19 19
43 42 42 41 41 40 40 39 40 40 42 42 43 43 43 42 41 40 39 37 36 33 31 29 27 25 25 25 24 23 23 22 22 22 20 20 20 20 21 22 21 19 18 16 15 12 11 11 13 17 21 25 28 31 34 37 39 39 39 38 37 34 33 33 33 34 34 34 33 32 30 28 26 26 24 23 24 24 22 20 18 18 19 20 21 21 21 21
45 44 43 42 41 41 40 39 39 39 39 39 39 41 42 42 42 41 40 39 37 35 32 30 28 26 25 25 24 23 23 22 22 21 20 19 19 20 20 21 20 18 16 14 13 11 10 10 11 14 18 22 25 27 30 33 36 37 36 36 35 34 33 33 34 33 33 33 32 31 30 29 28 27 25 23 23 24 23 22 20 20 20 22 23 23 22 22
47 47 46 45 43 42 41 40 39 39 38 37 37 37 38 39 39 40 40 40 38 36 34 31 30 27 26 26 24 23 23 22 21 21 20 18 19 19 20 21 19 16 14 13 11 9 9 9 10 12 15 19 22 24 27 30 32 34 34 33 34 33 32 33 33 32 32 31 30 31 31 30 28 27 26 24 23 23 23 22 21 20 21 23 24 24 23 23
49 49 48 47 46 45 43 41 40 40 39 38 37 36 36 35 35 36 38 38 38 37 35 32 31 28 26 26 24 22 22 22 21 20 20 18 18 19 19 20 18 14 13 11 9 8 8 8 8 10 12 15 19 21 23 26 29 31 32 32 32 32 31 31 32 31 29 29 29 29 30 31 29 28 27 26 24 23 22 22 21 20 21 22 24 25 24 24
50 50 49 49 48 47 46 44 42 41 40 39 37 37 36 35 34 33 34 35 36 36 35 33 32 30 27 27 25 22 22 22 21 20 19 18 17 18 18 19 17 13 11 10 7 6 6 6 7 9 10 13 16 18 20 23 27 29 30 31 31 31 30 28 29 30 29 27 27 26 26 27 29 28 27 26 25 24 23 22 22 21 20 21 22 24 25 24
51 51 50 49 49 48 48 47 45 43 41 40 38 37 37 36 34 33 33 33 33 33 34 33 32 30 28 28 26 23 22 22 20 19 19 18 17 18 18 18 16 12 10 8 6 5 5 4 5 7 9 12 14 15 17 20 25 27 29 30 30 31 29 24 22 25 28 27 26 24 22 22 24 26 26 26 25 25 24 24 23 22 21 21 22 23 26 27
52 52 52 51 50 49 48 48 47 45 44 42 40 38 37 36 35 33 33 32 32 31 32 32 31 30 29 28 27 24 22 22 20 19 19 18 17 17 17 17 15 12 9 7 5 5 5 5 4 4 6 8 10 12 14 18 22 26 28 29 30 30 29 26 20 17 21 25 26 25 23 21 21 22 23 24 24 24 24 24 24 23 23 23 23 24 26 28
53 53 53 52 51 50 48 48 48 47 45 44 42 40 39 37 35 34 33 33 32 30 30 30 30 30 29 28 27 25 23 22 21 19 18 18 17 17 17 16 14 11 8 7 5 6 7 6 5 4 4 5 6 9 11 15 20 23 26 27 29 30 28 26 24 19 17 20 24 26 25 23 21 21 22 22 22 23 23 24 25 25 25 24 24 24 25 26
54 54 53 53 53 52 50 48 47 47 46 45 44 42 41 38 37 35 34 33 32 31 29 29 29 30 29 28 28 26 23 22 21 19 18 18 17 17 17 16 14 10 8 6 6 8 10 8 6 6 6 5 5 7 10 13 16 19 23 25 28 29 28 26 26 25 22 19 20 23 25 24 22 21 21 22 22 23 24 25 26 26 26 26 26 26 26 27
54 54 54 53 53 53 52 49 47 46 46 46 45 44 42 40 38 36 34 34 33 32 30 29 29 29 30 28 28 26 24 22 21 19 18 17 17 16 16 16 14 11 9 8 9 12 12 11 8 8 8 8 7 8 9 12 14 17 20 23 25 26 27 28 27 26 25 24 22 21 22 23 23 22 22 23 24 24 25 26 27 28 28 29 28 28 28 28
55 54 53 53 53 53 53 52 49 46 46 45 45 44 44 42 40 38 36 34 34 33 31 29 29 29 30 29 28 27 24 23 22 20 19 17 17 16 16 15 14 11 11 10 11 14 15 13 12 11 10 10 10 10 10 12 14 17 19 21 24 26 27 28 28 27 26 25 24 23 22 21 22 23 24 26 26 26 27 27 28 29 30 30 30 30 30 30
55 55 54 53 53 53 53 53 51 48 46 45 44 44 44 43 41 39 37 36 35 34 32 30 29 29 29 29 28 27 25 23 22 21 20 18 17 16 15 15 14 12 12 12 12 15 16 16 16 15 13 12 12 12 12 13 15 17 20 22 24 26 27 28 28 27 26 24 24 24 25 24 24 24 26 27 29 30 30 31 31 32 32 33 33 33 33 32
56 55 55 54 53 52 52 53 52 49 46 45 44 43 43 43 42 41 39 37 36 35 33 31 30 29 29 29 29 28 26 24 22 22 21 19 17 16 15 14 14 13 12 13 13 14 17 18 18 18 16 15 13 12 12 14 16 18 20 23 25 27 28 29 28 28 26 26 25 25 26 27 28 29 29 29 30 31 31 32 33 34 35 35 35 35 35 34
57 56 55 54 53 53 52 52 52 50 48 46 44 43 43 43 43 42 40 39 38 36 34 32 30 30 29 29 29 28 27 25 22 22 22 20 17 17 16 15 14 14 13 14 14 14 16 18 20 20 18 17 15 13 13 15 18 20 21 23 25 27 29 30 30 29 28 28 28 27 27 28 29 31 32 33 33 32 32 32 32 32 33 34 35 35 36 36
57 57 56 55 54 53 52 52 52 51 49 47 45 43 42 43 43 42 41 40 39 38 35 33 31 30 30 29 29 29 28 26 23 22 22 21 18 17 17 16 15 14 14 15 15 15 15 16 19 21 20 18 17 15 14 16 18 20 21 23 25 27 29 30 31 31 30 30 30 31 30 31 31 32 33 34 35 35 35 34 33 32 33 33 34 35 36 36
58 58 57 56 55 54 53 52 52 51 49 47 46 44 43 43 43 43 43 42 41 39 35 34 32 31 31 30 30 30 29 27 24 22 22 21 19 18 18 18 16 15 14 15 15 15 15 15 16 19 21 20 18 16 15 16 18 19 21 22 23 25 27 29 30 31 31 30 31 31 32 32 33 34 34 34 34 35 35 34 34 34 33 33 33 34 35 35
57 58 58 57 56 55 54 52 52 51 50 48 47 45 44 43 43 43 44 44 42 39 36 35 33 31 31 31 31 32 31 28 25 23 23 22 20 20 19 19 18 16 14 14 15 15 15 14 15 18 21 21 20 18 17 18 18 18 19 20 22 23 25 27 29 30 30 29 29 30 30 31 31 32 33 33 33 33 33 33 33 33 33 33 33 33 34 34
55 57 58 58 57 56 55 53 52 51 50 49 48 47 45 44 43 43 44 44 42 40 38 35 33 32 33 33 33 33 32 30 27 25 24 23 21 21 21 20 19 17 15 14 14 15 14 14 16 18 19 20 20 19 19 19 18 17 17 19 21 23 23 25 26 27 28 28 28 28 28 28 28 29 30 31 31 32 32 32 32 32 32 32 32 32 32 33
52 54 56 57 57 57 56 54 52 51 51 50 49 48 46 44 43 43 43 43 42 40 38 35 34 34 35 34 33 34 33 31 28 27 26 24 23 22 21 20 19 17 16 14 14 15 15 14 16 18 18 18 19 20 21 19 18 17 17 18 20 22 23 23 24 26 27 27 27 27 27 27 27 27 27 28 29 30 30 31 31 31 30 30 30 30 31 31
50 53 55 56 56 56 56 56 54 52 51 50 50 49 47 45 43 42 42 42 41 39 38 36 35 34 35 35 35 35 34 32 31 29 28 26 24 23 23 21 19 18 17 15 14 15 14 12 13 15 16 15 16 18 20 19 18 17 17 18 20 21 22 22 23 23 24 25 25 26 26 26 26 26 26 26 27 27 28 28 28 28 28 28 28 29 30 30
49 51 53 54 55 55 56 56 55 53 52 51 50 50 48 46 44 42 41 41 41 41 39 37 35 36 37 36 36 36 35 35 34 31 29 28 26 25 24 22 20 18 17 16 15 14 12 10 11 13 13 12 13 15 17 18 18 18 18 18 19 20 21 21 20 20 20 20 21 23 23 23 24 24 24 25 25 25 25 26 26 26 26 27 28 29 29 30
46 47 50 51 53 54 55 55 56 54 52 51 51 50 49 46 44 43 42 42 42 42 41 38 38 38 37 37 38 37 37 37 36 34 31 30 28 26 24 23 21 20 19 17 16 13 11 10 11 12 11 10 11 13 16 17 17 17 17 16 17 18 17 16 16 15 15 16 17 18 19 20 20 21 21 21 22 22 23 24 24 25 25 26 27 28 29 29
43 44 46 48 50 52 53 55 56 56 53 51 52 51 49 48 46 44 43 43 43 43 42 40 39 38 38 41 39 38 39 39 37 35 33 31 29 27 26 25 22 21 20 18 16 14 12 12 13 13 12 10 10 12 14 15 15 17 16 15 16 15 13 12 13 13 13 14 15 17 17 18 18 19 19 19 20 21 22 23 24 24 25 27 28 29 29 30
39 39 42 45 47 50 52 54 56 56 54 52 52 52 50 49 47 45 44 44 45 44 43 42 40 39 42 43 40 40 41 39 38 37 35 33 31 29 29 26 23 23 22 20 18 16 15 15 15 16 15 13 13 14 15 15 15 16 16 15 15 14 12 11 12 13 15 16 17 18 19 19 20 20 20 20 21 22 23 24 25 26 27 28 29 30 31 31
36 36 38 41 45 48 51 53 55 56 55 53 53 52 51 50 48 46 45 46 45 44 44 43 40 41 43 43 41 42 41 40 40 39 37 34 31 31 30 27 26 25 23 21 19 18 18 18 18 19 18 17 17 18 19 17 16 16 16 15 13 12 10 11 13 16 19 20 20 21 21 21 21 21 21 21 22 23 24 25 26 27 28 29 30 31 32 32
33 33 34 38 42 46 50 52 54 56 55 54 53 53 52 50 49 47 46 47 46 45 45 43 42 43 44 43 42 42 42 42 41 39 38 36 34 35 33 29 27 27 24 22 21 21 20 19 20 20 19 19 20 21 20 18 15 16 17 14 12 11 12 13 16 19 21 22 22 22 22 22 22 22 22 22 23 25 26 27 28 29 30 31 32 32 33 33
31 31 31 35 39 44 48 51 54 55 56 55 54 53 52 51 50 49 49 49 47 46 46 44 43 44 45 45 44 42 43 44 41 40 40 39 39 38 33 30 29 29 27 24 23 23 22 21 21 20 19 20 21 21 19 16 15 17 17 15 13 13 14 16 18 20 22 23 23 23 23 23 23 23 23 24 25 27 28 29 30 31 32 33 34 34 33 34
29 29 29 32 36 41 46 50 53 54 56 56 55 53 53 52 51 51 52 51 48 46 46 45 44 45 46 47 44 42 43 43 42 42 43 42 41 38 34 32 32 32 30 27 26 24 23 24 23 21 21 21 22 21 19 17 17 19 18 17 16 16 17 17 19 21 23 24 24 24 24 25 25 25 25 26 27 29 31 32 32 33 34 36 36 36 35 35
27 28 28 30 34 37 43 48 51 53 56 57 55 54 54 53 53 54 53 51 48 47 46 45 44 45 45 45 43 41 42 43 44 45 44 44 42 39 37 36 36 36 34 30 28 25 25 26 25 24 25 25 25 24 21 21 21 21 20 19 18 18 19 19 21 23 24 24 24 25 25 27 28 27 27 28 29 31 33 35 35 36 37 38 40 39 38 38
26 27 26 28 31 35 39 45 49 52 55 56 56 55 54 55 56 56 54 51 48 47 46 45 45 45 44 44 44 43 44 45 46 46 45 44 43 41 39 38 38 37 35 31 27 26 27 27 27 28 29 29 29 27 26 25 24 22 21 20 20 20 22 22 23 24 24 24 25 25 24 28 30 29 29 31 32 34 36 37 39 40 41 42 44 44 43 42
25 26 24 25 29 33 36 41 46 50 53 55 57 56 56 58 58 56 54 52 49 48 47 46 46 45 45 46 47 45 46 47 48 47 46 45 44 43 41 40 40 39 36 31 28 28 29 29 30 31 30 30 29 29 28 26 25 25 23 23 23 24 24 24 24 25 26 26 26 26 25 28 31 31 31 34 35 35 37 38 40 42 43 45 46 47 47 46
24 23 22 23 28 32 34 38 43 48 51 54 56 57 60 60 58 55 54 52 51 49 47 47 47 46 47 48 48 47 47 48 48 48 47 47 46 45 44 44 44 42 38 34 32 32 33 33 34 33 30 29 30 30 29 27 27 27 27 28 28 27 27 27 27 28 29 29 28 28 28 31 34 35 36 37 38 38 38 40 42 44 45 46 47 48 49 48
22 21 21 22 26 29 32 35 40 45 48 51 55 58 61 60 57 55 54 53 51 49 48 48 48 48 49 48 48 49 49 48 49 49 49 48 48 47 46 46 46 43 39 37 37 37 37 37 35 31 30 30 31 30 28 28 27 27 28 30 29 29 30 30 30 31 32 32 32 32 34 35 37 38 39 40 41 41 41 43 45 46 46 46 46 47 48 47
21 20 20 21 23 27 31 34 37 42 45 49 54 58 59 58 57 56 54 53 52 49 48 50 50 49 49 48 49 50 49 48 49 50 51 50 49 48 48 48 46 44 42 41 40 39 40 39 34 31 31 32 30 29 28 28 27 28 29 29 29 30 30 31 32 32 33 34 34 35 37 38 40 41 42 42 43 43 44 46 46 46 46 46 45 45 45 44
20 19 19 20 22 25 29 33 36 39 42 47 52 55 56 56 56 55 53 52 50 49 49 50 50 49 48 48 49 49 48 47 48 50 52 51 50 50 50 50 48 47 47 45 43 42 41 39 36 35 35 33 30 30 29 30 30 30 30 30 30 31 31 32 33 33 33 35 35 36 38 39 41 42 42 43 43 44 45 45 45 45 45 44 43 42 42 43
20 19 19 19 22 25 28 31 34 37 41 45 49 52 53 53 53 51 50 50 49 49 50 50 50 49 49 49 49 48 48 48 49 50 51 51 52 52 52 52 51 50 50 48 46 45 43 41 39 38 37 34 33 32 32 32 33 32 32 32 33 33 33 33 34 34 35 35 35 36 36 38 40 40 41 43 43 43 44 44 44 44 44 43 42 42 43 44
19 18 19 19 21 24 26 29 32 35 39 43 46 48 49 49 49 48 48 50 50 50 51 51 51 49 49 49 48 49 49 49 49 50 50 52 53 53 53 53 52 52 52 50 48 46 43 42 42 40 38 37 35 35 35 35 35 34 34 35 35 35 35 36 36 36 36 35 35 35 35 36 38 39 40 41 42 43 43 42 42 43 43 43 43 44 44 44
18 18 19 19 20 22 25 28 31 34 37 40 42 44 45 47 47 47 48 50 51 51 52 53 51 50 49 49 49 49 49 49 50 50 51 53 54 54 54 54 54 54 53 51 49 46 45 45 44 42 40 39 38 38 38 38 37 36 37 37 36 37 38 38 37 36 37 37 36 35 35 36 37 38 39 39 40 41 41 41 42 42 43 44 44 44 44 44
18 18 19 19 19 21 25 28 30 33 34 36 39 41 44 46 47 47 49 51 51 52 53 53 51 50 50 50 49 49 49 49 49 50 51 54 56 56 56 57 56 55 53 52 50 49 49 48 46 44 42 41 41 41 41 40 39 39 39 38 39 40 40 40 39 38 37 37 36 35 35 36 37 38 38 39 39 40 40 41 42 42 43 43 44 45 45 44
19 19 19 18 17 19 22 25 29 31 33 36 39 41 44 45 46 47 49 51 51 51 53 53 52 51 50 49 48 49 50 49 50 51 53 54 56 57 57 57 56 55 54 53 52 51 50 47 46 45 44 44 44 43 43 43 42 41 41 40 41 42 42 41 41 39 37 37 36 36 36 37 38 38 39 39 39 39 40 40 41 42 43 43 44 45 44 43
20 20 19 17 16 17 19 23 27 29 32 36 39 42 44 44 45 47 49 50 50 51 51 51 51 50 49 47 47 48 49 49 51 52 53 53 54 55 55 56 56 55 54 53 53 52 51 49 48 47 46 45 45 45 45 46 45 44 43 43 43 44 43 43 42 40 39 37 36 36 37 37 38 38 39 39 39 39 40 40 41 43 43 44 45 45 44 43
21 20 18 15 15 16 19 22 25 27 31 35 38 41 42 43 45 47 48 49 49 49 50 50 49 49 47 46 47 48 49 50 51 52 53 53 53 53 54 56 56 56 56 56 56 54 52 51 51 49 48 47 48 48 48 47 46 45 45 45 45 45 45 45 44 42 41 38 36 36 36 36 37 38 39 39 39 40 40 40 41 43 44 45 45 44 44 44
21 19 17 15 15 17 19 21 23 26 31 34 36 38 40 41 43 46 47 48 48 49 49 49 49 49 48 47 48 49 50 51 52 53 54 54 53 52 53 55 56 57 58 58 57 55 54 54 53 51 51 50 50 50 49 48 47 47 48 48 47 47 46 45 44 42 41 39 38 37 36 37 38 39 40 40 40 41 41 41 42 43 44 45 45 45 44 44
20 18 17 15 15 17 19 20 22 26 30 32 33 35 37 39 41 44 45 47 48 48 49 49 50 50 49 49 50 50 51 52 53 53 54 55 54 52 53 54 55 57 58 57 57 56 55 56 55 54 54 52 52 51 51 50 50 50 50 50 49 49 47 45 43 41 40 39 38 37 37 38 40 40 41 41 41 41 41 41 43 44 44 44 45 44 44 43
18 17 16 16 17 18 18 19 21 25 29 31 31 33 34 36 39 42 44 46 48 48 48 50 51 51 50 51 51 50 51 52 52 53 55 55 54 52 52 53 54 55 56 56 56 55 56 57 56 56 55 54 52 53 53 53 52 52 51 51 51 50 48 45 43 41 40 39 39 37 37 39 41 41 41 41 41 42 41 42 43 44 44 44 44 44 43 42
17 16 16 17 18 18 18 18 20 24 27 29 31 32 33 34 37 40 42 45 46 47 48 50 51 51 51 51 51 51 52 53 53 53 54 55 54 53 52 52 52 53 54 55 55 54 55 56 56 55 55 54 53 54 54 54 54 53 52 52 51 49 47 45 44 42 41 40 40 39 39 41 42 42 42 42 42 43 42 42 43 43 43 43 43 43 42 42
16 16 16 17 18 18 18 17 19 22 25 27 29 32 33 34 36 39 41 43 45 46 48 50 51 52 52 52 52 52 53 53 53 53 54 55 54 54 53 51 51 52 53 54 53 53 53 55 54 54 54 53 52 53 54 54 53 53 54 52 50 48 46 45 45 43 42 41 41 41 41 42 43 44 44 44 44 44 43 42 42 42 42 42 42 42 42 41
15 15 15 16 18 19 18 17 18 20 23 25 27 30 32 33 36 39 40 41 43 46 48 50 51 52 52 52 52 52 53 53 53 53 54 54 54 53 52 51 51 52 52 53 52 51 52 53 52 51 52 52 51 52 53 53 53 54 54 52 49 48 47 46 45 44 43 42 42 42 42 43 43 44 45 46 46 45 44 43 42 41 41 41 42 42 42 42
14 14 15 16 17 18 18 17 17 19 22 24 26 28 30 32 36 38 40 41 43 46 48 49 51 52 51 51 51 52 52 53 53 53 53 54 54 52 51 52 52 53 53 53 52 51 51 52 51 50 50 51 50 51 52 53 54 54 52 50 49 48 48 47 46 45 44 44 44 43 42 42 43 44 45 46 46 46 45 44 43 42 41 41 42 42 42 43
Wind_Direction
265 264 264 264 265 265 266 267 268 269 270 271 271 272 272 272 273 274 275 276 278 279 281 284 285 285 285 286 288 289 290 292 294 295 295 294 295 298 302 303 301 300 298 295 288 277 263 248 237 228 223 221 221 223 225 227 229 231 232 233 236 235 235 236 237 236 234 231 226 224 225 226 226 228 230 232 237 242 250 261 270 279 288 293 297 306 311 309
265 265 265 265 265 265 265 265 266 266 267 269 270 271 271 272 272 273 274 275 276 277 279 281 283 284 284 285 287 288 289 291 293 295 295 294 296 300 303 304 303 303 303 300 295 284 268 250 237 227 222 219 220 222 224 226 226 227 229 230 234 235 233 234 236 237 235 232 228 226 225 226 226 227 228 230 233 236 243 255 267 276 283 290 295 302 307 308
264 265 265 266 266 266 266 265 265 265 266 266 267 269 270 270 271 272 272 273 274 275 276 278 280 282 283 284 285 286 288 290 292 295 295 294 296 300 303 305 304 305 306 304 300 291 276 256 239 228 221 218 218 220 222 223 224 225 226 227 231 233 232 233 234 235 235 233 229 225 225 228 229 229 229 233 236 238 241 247 258 269 277 285 290 295 299 301
264 264 265 265 266 266 267 266 266 266 266 266 266 267 268 268 269 270 271 271 272 273 274 276 277 279 281 282 284 285 286 288 291 294 295 294 296 301 304 305 305 307 308 305 302 297 286 264 242 227 220 217 216 218 220 221 221 221 222 223 227 230 231 232 232 232 233 233 230 226 227 229 231 232 232 236 241 244 247 249 256 266 273 278 284 289 293 296
265 265 265 265 265 265 266 266 267 267 267 267 266 266 267 267 267 268 269 269 270 271 271 273 274 276 279 280 281 283 284 286 289 293 294 295 297 301 304 304 306 308 307 304 303 302 293 271 247 228 218 214 213 215 218 219 219 218 218 220 223 226 227 229 230 231 232 233 232 229 229 231 232 234 235 238 244 249 253 256 260 266 272 277 282 287 291 295
263 264 265 265 265 265 265 265 266 267 267 267 267 267 267 267 267 267 267 267 268 268 269 270 271 273 275 278 278 280 283 284 287 292 293 294 297 300 303 303 304 305 303 301 303 303 292 274 253 234 221 215 210 211 215 217 217 216 215 216 219 222 223 226 230 231 232 232 232 232 232 232 233 236 238 240 243 248 255 260 262 266 271 276 282 287 291 294
263 263 263 264 265 265 264 265 265 266 266 266 267 267 268 268 268 267 267 267 266 266 266 266 268 270 272 274 275 277 280 282 285 290 292 293 296 299 302 302 302 302 299 298 301 298 287 274 256 237 223 217 211 208 212 214 214 214 213 213 216 219 219 223 228 230 232 231 230 232 234 235 235 238 240 241 241 245 253 260 264 268 273 279 285 289 291 293
263 263 262 262 263 263 264 264 264 264 265 266 266 266 267 267 267 268 268 267 266 265 264 263 265 266 269 271 271 273 277 279 282 287 290 291 294 297 299 300 299 300 297 294 293 287 282 271 252 235 222 216 210 205 209 213 212 211 212 211 213 217 217 220 227 228 228 229 230 233 237 239 240 240 242 243 244 247 254 261 266 270 275 278 282 287 289 290
263 263 262 262 261 261 262 262 263 263 264 264 265 265 265 266 266 267 268 268 267 265 263 261 261 263 265 268 268 269 272 276 279 284 287 289 292 294 297 297 296 296 292 289 281 267 267 261 249 237 225 216 208 203 205 212 212 209 211 211 212 216 215 214 224 230 228 227 230 233 235 240 244 245 246 248 251 254 257 263 268 271 272 273 276 280 284 288
262 262 262 262 261 260 260 260 261 261 262 263 263 263 264 265 265 265 266 267 267 266 264 261 259 259 261 265 266 266 268 273 276 280 284 286 289 292 294 294 292 291 287 283 264 252 255 251 246 244 235 223 211 204 204 211 212 209 210 211 212 216 216 212 213 224 232 229 229 231 233 237 244 248 250 253 258 261 264 268 271 272 272 273 275 277 281 286
262 261 262 262 262 261 259 259 259 260 260 261 262 262 263 263 264 264 264 265 266 265 264 261 257 256 257 260 262 262 265 269 272 276 281 284 286 289 292 292 289 285 280 272 244 237 247 247 242 229 230 238 224 211 207 211 213 211 211 213 215 217 216 213 211 213 225 232 232 232 234 238 244 249 253 257 261 264 267 270 271 272 273 273 274 274 277 282
261 261 261 261 261 261 260 258 257 258 258 259 260 261 261 262 262 262 263 263 264 264 263 261 256 254 253 255 258 259 260 264 268 272 276 280 283 286 290 290 287 280 267 253 225 223 235 240 236 222 216 232 241 229 217 213 213 213 213 215 218 219 217 214 214 215 220 228 234 238 240 242 246 252 258 262 264 266 267 267 269 272 273 272 272 273 275 280
260 260 260 260 260 261 261 259 257 256 256 257 257 259 259 260 260 261 261 261 262 262 261 260 256 252 251 251 254 255 256 259 264 267 270 275 278 282 287 287 284 275 260 242 220 220 229 231 227 221 221 225 234 237 229 220 215 214 216 218 220 221 220 217 217 220 224 226 231 238 245 249 251 254 257 261 263 264 264 264 268 271 272 272 273 275 279 283
260 259 259 259 259 259 260 260 258 256 255 255 255 256 257 258 259 259 260 260 260 260 259 258 255 251 248 247 249 251 252 255 260 263 265 269 273 278 282 283 280 271 258 243 226 220 224 227 225 223 227 230 232 234 234 231 223 217 217 220 223 222 221 220 220 222 227 231 233 236 242 249 253 256 257 258 260 262 263 265 268 271 272 274 277 280 284 287
260 259 258 257 257 257 258 259 258 256 254 254 254 254 255 256 257 257 257 258 258 258 257 256 254 250 246 244 245 248 248 250 255 259 261 263 268 273 277 280 277 268 257 246 235 227 223 224 225 226 230 233 232 230 231 235 231 224 219 220 223 224 222 221 222 223 227 232 237 240 242 245 249 254 256 258 261 263 266 268 270 272 275 279 283 286 290 292
260 259 258 256 256 255 256 257 257 256 254 253 252 252 253 254 255 255 255 256 256 256 255 254 252 250 245 242 242 244 246 246 251 256 259 260 263 269 271 275 274 267 257 246 239 235 229 226 226 228 231 232 231 229 230 235 235 229 223 221 223 225 225 225 225 227 229 232 237 242 245 247 250 252 255 258 261 264 267 270 272 274 277 281 284 288 291 293
259 258 257 256 255 254 253 254 255 255 254 252 251 250 250 251 252 252 253 253 253 253 253 252 251 249 246 241 239 241 243 243 246 252 257 259 261 265 267 268 267 264 258 248 239 237 235 233 231 231 233 235 235 236 236 237 236 230 225 225 226 226 227 228 229 231 233 236 239 244 248 251 252 254 255 257 260 264 269 272 275 276 279 281 283 286 288 291
258 257 256 255 254 253 252 251 252 253 253 251 249 248 248 248 248 249 249 249 250 250 250 250 249 248 245 240 237 238 240 240 241 247 254 257 258 261 263 263 261 258 257 251 242 238 238 238 238 237 237 238 239 239 242 241 236 229 225 226 229 230 231 231 232 234 236 240 243 247 251 253 255 256 257 258 260 264 270 274 278 281 282 283 284 286 288 290
258 256 255 254 252 251 250 249 249 250 250 250 248 246 245 245 246 246 247 247 247 246 246 246 246 245 244 239 235 235 236 236 237 241 248 252 255 257 260 261 258 254 254 252 247 241 240 240 242 243 241 239 238 238 239 238 234 228 225 225 229 232 234 235 235 236 239 243 247 250 253 255 256 258 259 261 263 266 271 275 279 281 283 284 285 286 289 291
257 256 254 252 251 250 248 248 247 247 247 247 246 244 243 243 244 244 245 246 246 245 245 244 243 243 242 237 232 232 232 233 233 236 242 246 250 254 257 259 258 254 251 251 250 246 243 243 245 244 240 238 238 239 238 236 233 229 226 227 231 233 235 237 238 239 242 247 251 254 257 258 259 260 262 264 267 269 272 275 278 280 281 283 284 286 288 290
257 256 253 251 249 248 247 245 245 245 244 244 244 243 242 242 242 242 244 245 246 246 245 244 243 242 240 237 232 230 229 230 229 231 236 240 245 250 254 256 257 256 252 250 250 247 243 244 245 243 240 238 238 239 239 238 235 231 230 232 235 237 238 240 241 242 245 249 254 257 259 261 262 263 264 266 268 269 272 274 276 278 280 282 284 286 287 289
257 256 253 251 248 246 244 243 242 242 241 241 242 241 241 240 240 240 242 244 245 245 245 244 242 241 241 238 235 230 227 227 227 228 232 235 239 244 249 251 254 256 255 251 247 243 238 239 246 248 245 243 243 243 243 240 235 233 234 238 241 242 242 243 245 247 249 251 255 257 259 261 262 263 264 265 267 269 271 273 275 277 279 282 284 286 288 289
258 256 254 250 247 244 242 240 240 239 239 239 239 239 239 238 238 239 240 242 243 243 243 242 241 242 241 239 236 232 226 224 225 226 228 231 234 239 243 246 249 251 253 252 248 243 238 239 247 248 245 245 248 250 248 241 234 233 234 239 243 244 243 244 246 248 250 253 255 257 259 260 262 263 263 265 267 269 272 274 275 277 280 282 285 286 288 289
261 257 253 250 247 243 240 238 237 237 237 236 236 237 238 237 236 236 237 239 240 240 239 238 238 239 239 238 236 234 227 224 224 224 225 228 231 235 239 241 243 245 245 247 248 248 243 244 247 242 238 238 245 249 246 239 234 232 232 235 242 246 246 245 246 248 252 255 257 259 260 261 263 264 266 268 270 272 274 276 277 279 281 283 285 286 287 288
264 258 253 249 245 241 238 235 234 234 234 234 234 235 236 236 235 234 235 236 237 237 236 234 233 235 236 236 235 233 229 225 223 222 223 225 228 232 236 238 239 239 240 241 243 244 240 240 240 232 226 228 234 239 238 234 233 235 236 236 241 245 245 244 246 250 255 260 263 265 266 265 266 267 269 271 273 275 276 277 278 280 282 283 284 284 285 286
266 258 252 247 242 239 236 233 231 231 231 231 232 233 234 233 233 232 232 233 234 235 235 232 231 231 232 233 232 231 230 226 223 222 222 224 226 229 232 234 234 235 237 237 235 232 227 228 231 225 219 220 228 233 235 234 233 237 238 235 233 232 231 235 243 250 257 261 262 264 265 264 265 266 268 270 272 274 276 277 278 280 281 282 283 283 285 286
266 258 251 244 239 236 233 230 229 229 228 229 230 231 231 231 232 231 230 232 232 233 233 231 229 228 229 231 230 228 230 228 224 222 222 223 224 227 230 232 232 234 235 235 232 227 221 220 224 223 217 216 223 229 230 229 233 236 234 230 228 226 224 235 247 254 256 256 255 255 255 257 259 262 265 268 270 273 275 278 280 281 282 284 285 287 289 290
266 257 250 243 237 234 232 229 227 226 226 227 228 228 229 230 230 230 229 231 231 231 232 231 228 228 229 230 228 227 230 229 225 222 222 223 224 227 230 230 231 233 233 233 231 228 226 223 223 225 222 218 221 226 226 223 228 237 236 231 232 235 238 247 253 255 256 255 255 255 256 257 260 264 267 271 273 276 279 281 284 285 285 286 288 290 292 294
266 257 250 244 236 232 230 228 226 225 224 225 226 226 227 228 229 229 228 230 230 229 230 230 227 227 229 229 227 226 228 228 226 223 221 221 222 226 227 227 230 233 232 230 229 229 230 229 229 231 231 228 227 231 234 230 228 236 239 234 234 242 250 254 256 258 260 260 260 261 263 264 267 271 275 278 281 282 283 284 285 286 287 287 288 290 292 295
267 258 251 245 237 232 229 227 225 224 223 223 225 225 226 227 227 228 228 228 228 227 229 228 226 227 228 229 227 225 225 228 227 223 221 220 221 224 226 226 229 232 231 228 226 228 230 231 234 235 235 235 236 238 242 242 236 235 236 232 230 238 248 254 260 264 265 266 268 271 273 275 278 280 282 284 285 285 284 284 284 285 286 287 288 289 292 295
268 259 251 246 240 232 229 228 225 223 222 222 223 224 224 225 226 227 227 227 227 226 227 228 227 227 228 229 228 226 226 228 227 224 222 222 222 223 224 224 228 231 230 226 224 224 226 230 232 233 234 236 238 240 240 242 239 235 232 229 230 236 244 251 259 264 266 270 275 278 280 282 282 282 283 284 285 285 284 283 283 284 285 287 288 290 292 295
270 259 250 245 241 234 229 228 226 223 223 222 222 223 224 224 225 226 227 226 226 226 226 227 228 228 229 230 230 228 227 227 227 225 223 222 222 222 222 223 226 229 229 228 227 224 224 227 229 230 231 233 235 237 234 234 235 234 233 234 235 240 244 248 253 260 265 271 276 280 284 285 282 283 285 286 285 285 285 286 287 288 290 291 292 294 296 297
271 260 250 244 241 236 230 228 227 225 223 222 222 223 223 224 225 226 226 225 225 225 225 225 226 227 228 229 229 227 227 226 227 227 225 223 223 222 223 225 228 232 232 231 230 228 226 226 227 228 230 232 235 236 234 233 235 236 238 240 242 245 248 249 254 260 265 269 273 277 282 283 284 286 287 284 283 284 287 290 292 293 294 295 295 296 297 298
274 264 254 246 241 237 231 228 227 226 224 223 222 222 224 225 225 225 226 225 224 224 224 224 225 226 225 226 226 225 225 225 226 227 226 224 223 223 223 225 228 232 233 231 231 232 231 228 228 229 231 233 236 238 238 238 239 239 240 241 243 245 249 251 255 259 262 264 268 271 273 276 279 281 279 279 280 282 285 287 289 291 292 293 295 296 297 298
279 271 259 248 241 238 233 228 227 226 225 224 223 223 224 225 225 225 225 224 223 223 223 223 224 224 224 225 225 225 224 224 225 226 226 224 223 223 222 224 227 229 230 229 228 230 232 231 230 231 232 234 237 238 239 239 240 241 242 242 243 245 248 251 253 256 259 261 263 265 266 267 270 272 273 274 277 279 281 283 284 285 286 288 290 293 295 296
282 275 262 251 242 238 235 230 227 226 225 224 224 224 225 225 225 225 225 224 223 222 222 223 223 223 224 223 224 225 223 222 223 224 226 226 225 224 224 226 228 230 230 229 229 230 232 234 234 234 234 236 238 240 241 242 243 244 245 246 246 248 249 251 252 254 258 260 262 263 264 264 266 269 271 273 275 277 279 279 280 281 283 285 288 290 292 294
283 278 266 254 244 237 235 232 228 226 225 224 225 225 225 225 224 224 224 224 223 221 222 223 222 223 224 224 224 226 225 223 222 222 223 225 225 225 226 228 230 231 231 231 231 232 235 237 239 239 238 239 242 244 246 247 247 247 247 249 250 250 250 251 252 253 255 258 259 261 263 264 266 268 269 271 273 275 276 277 278 281 284 287 288 290 291 293
283 280 271 257 245 237 234 232 230 227 225 224 225 225 225 224 224 223 223 224 223 222 223 224 223 223 224 224 224 226 227 227 224 223 223 223 223 224 226 228 229 230 231 231 232 233 235 239 240 240 241 242 244 246 248 249 249 249 250 251 252 252 252 253 254 254 253 255 256 258 261 263 266 268 270 272 273 274 276 278 281 284 286 287 288 289 291 292
283 281 274 261 247 239 235 233 231 227 225 225 225 225 225 224 224 223 223 224 223 223 224 224 223 223 224 225 224 224 226 227 226 226 226 224 223 224 225 227 228 230 231 232 232 233 235 237 239 240 242 244 244 246 248 250 251 252 253 254 254 255 255 255 256 256 255 255 257 259 262 264 267 270 272 273 275 276 278 280 282 284 285 286 287 288 289 290
281 280 275 264 251 242 237 234 232 229 227 226 226 226 225 224 224 222 222 223 222 222 224 224 223 222 223 225 225 224 224 225 226 226 226 226 226 226 226 227 229 231 232 232 233 234 235 238 240 241 243 244 246 247 249 251 253 255 256 256 257 258 259 258 258 259 261 261 262 263 264 266 268 270 271 273 275 277 279 281 283 284 285 286 287 287 287 288
277 278 274 266 256 246 239 234 232 230 228 227 227 226 225 224 222 220 220 221 221 221 222 222 221 221 222 223 224 225 225 225 226 226 225 226 227 228 228 228 229 231 233 234 235 236 237 238 240 241 243 245 247 248 250 251 252 255 257 259 261 262 262 262 262 262 264 265 265 266 266 267 269 270 271 273 275 278 280 283 284 284 285 285 285 285 286 287
272 273 271 267 261 251 243 237 233 229 227 227 227 226 225 223 221 219 219 220 220 220 221 221 220 220 221 221 222 224 225 226 227 227 226 225 226 228 228 229 230 232 234 235 235 236 236 237 239 241 243 245 247 249 252 253 255 257 259 261 263 264 264 264 264 263 264 265 266 267 269 270 271 272 274 276 278 279 281 282 283 283 283 284 284 284 285 287
266 269 269 268 267 259 250 243 238 232 228 226 224 224 223 221 219 218 219 220 220 219 220 221 220 220 220 220 221 222 224 225 226 227 227 226 226 228 229 230 232 233 234 235 237 239 240 241 243 244 245 247 249 251 254 257 258 259 260 262 264 265 265 266 265 265 265 266 268 270 271 272 273 275 276 276 277 278 279 280 281 282 282 283 283 284 285 288
261 266 269 270 270 265 255 247 240 235 231 227 224 223 221 219 217 217 218 219 219 219 220 221 221 221 220 220 221 222 224 225 226 228 229 229 229 229 230 232 234 235 236 237 239 241 242 243 245 246 247 249 251 253 255 257 259 260 262 264 266 267 268 269 269 270 270 269 270 270 271 273 275 275 276 276 277 278 278 279 280 281 281 281 282 283 286 288
257 264 269 270 268 263 255 246 239 235 233 230 226 225 222 219 217 216 217 218 218 218 220 221 222 223 221 220 221 222 224 226 227 229 231 231 231 231 231 233 234 235 236 237 239 240 241 243 245 247 248 250 252 254 255 257 260 263 265 266 267 268 269 270 271 272 272 272 272 273 274 275 276 276 277 278 278 278 277 277 278 278 279 279 281 282 284 285
255 262 268 267 263 261 256 248 239 234 233 232 229 227 224 221 219 217 216 217 217 217 220 221 221 222 221 220 220 220 222 224 226 229 230 231 231 230 231 233 234 235 235 236 238 239 240 242 244 246 248 250 253 255 257 260 262 264 265 266 267 267 268 268 269 271 272 273 275 276 277 278 277 277 277 277 276 276 277 277 276 276 276 277 279 280 281 282
253 258 265 265 260 259 257 251 242 236 232 231 229 228 225 222 222 220 217 217 217 217 219 220 221 221 221 220 219 219 221 223 225 227 230 232 232 231 231 232 234 235 237 238 239 239 240 242 244 245 247 248 251 255 258 260 261 262 263 265 266 266 266 267 269 271 272 274 275 275 275 276 276 276 276 275 275 276 276 275 275 275 275 275 277 278 280 281
252 253 260 264 261 259 258 253 246 241 236 231 227 227 226 223 223 221 219 218 218 217 217 220 221 221 221 220 219 219 221 223 225 226 229 232 233 233 232 233 234 237 239 240 241 241 241 243 244 245 246 247 250 253 255 257 259 260 261 262 263 265 266 268 271 272 273 274 274 274 274 275 275 274 273 274 274 274 274 274 273 273 274 275 276 278 280 282
252 249 254 262 264 261 259 256 250 245 240 234 228 224 222 222 222 222 220 219 219 218 218 219 221 222 221 221 220 219 220 223 224 226 229 231 233 234 234 234 235 238 240 242 242 242 243 244 245 246 247 248 249 251 253 255 256 258 260 261 262 264 266 269 271 272 273 273 274 274 274 275 274 274 274 274 273 273 273 273 273 274 275 276 278 280 281 282
255 248 248 257 264 265 261 258 254 248 242 237 232 227 221 219 221 221 219 219 219 219 219 219 221 222 221 221 221 220 220 222 223 225 228 230 232 233 234 235 236 237 240 242 244 244 244 245 246 247 248 249 250 251 253 254 256 258 259 260 262 264 266 268 269 270 271 272 273 274 274 274 275 275 275 274 273 273 274 274 275 276 278 280 281 283 284 285
261 251 247 251 261 267 265 260 255 250 243 237 235 232 226 221 220 219 218 217 218 219 219 220 221 223 222 222 222 221 222 222 223 225 228 230 231 232 234 235 236 237 238 240 243 244 245 246 247 248 249 250 251 252 254 255 256 257 258 260 263 265 267 268 269 270 270 270 270 270 271 271 272 272 272 273 273 274 276 277 278 279 280 282 284 285 286 287
269 257 248 248 256 265 266 262 257 252 246 239 234 232 229 226 223 220 217 217 217 218 219 220 222 223 223 223 223 224 224 224 224 225 228 230 231 232 233 234 235 236 237 238 240 241 242 244 245 246 249 250 251 252 253 254 255 256 258 261 264 265 265 266 267 267 267 267 266 267 267 268 268 268 268 269 272 274 276 278 280 282 283 283 284 284 285 286
Height
10934 10935 10935 10936 10937 10938 10939 10939 10940 10940 10941 10941 10942 10943 10944 10945 10945 10946 10947 10948 10949 10950 10951 10951 10950 10950 10949 10948 10949 10949 10949 10948 10948 10948 10947 10946 10946 10945 10944 10943 10943 10943 10942 10942 10942 10941 10942 10943 10944 10946 10948 10950 10952 10952 10952 10952 10953 10954 10956 10957 10957 10958 10960 10963 10965 10967 10969 10970 10971 10973 10975 10976 10976 10977 10978 10978 10979 10980 10981 10981 10981 10981 10981 10981 10981 10981 10981 10981
10931 10931 10932 10932 10933 10934 10935 10935 10936 10937 10937 10938 10938 10939 10940 10942 10942 10943 10944 10945 10945 10947 10948 10948 10948 10947 10946 10946 10947 10947 10947 10946 10946 10946 10945 10944 10944 10943 10942 10941 10941 10940 10940 10939 10938 10938 10938 10938 10939 10941 10942 10944 10946 10948 10949 10949 10951 10952 10953 10955 10956 10957 10959 10962 10964 10966 10968 10969 10970 10972 10974 10974 10975 10976 10977 10977 10978 10979 10980 10981 10981 10980 10981 10980 10980 10981 10980 10980
10927 10927 10928 10929 10929 10930 10931 10932 10932 10933 10933 10934 10935 10935 10936 10938 10939 10939 10940 10941 10942 10944 10945 10945 10945 10945 10944 10944 10945 10945 10944 10944 10944 10944 10943 10942 10942 10941 10940 10939 10939 10938 10937 10937 10936 10936 10935 10935 10936 10937 10939 10940 10942 10943 10945 10946 10948 10950 10952 10954 10955 10957 10959 10961 10963 10965 10966 10967 10969 10970 10972 10973 10974 10975 10975 10975 10976 10977 10978 10980 10980 10979 10979 10979 10979 10980 10980 10979
10923 10924 10924 10925 10926 10927 10927 10928 10928 10929 10929 10930 10931 10932 10932 10934 10935 10936 10937 10938 10939 10940 10942 10943 10942 10942 10942 10941 10942 10942 10942 10942 10942 10942 10941 10940 10940 10939 10938 10937 10937 10936 10935 10935 10934 10934 10934 10934 10934 10935 10936 10938 10939 10940 10942 10943 10946 10948 10949 10952 10954 10956 10958 10959 10962 10963 10964 10965 10967 10969 10970 10971 10972 10973 10973 10973 10974 10975 10977 10979 10980 10979 10978 10978 10977 10978 10979 10978
10919 10920 10920 10921 10922 10923 10924 10924 10925 10925 10926 10927 10927 10928 10929 10930 10931 10932 10933 10934 10935 10937 10939 10940 10940 10940 10939 10939 10940 10940 10940 10940 10940 10940 10939 10939 10938 10937 10936 10935 10935 10934 10934 10933 10933 10933 10933 10933 10933 10933 10934 10935 10937 10938 10940 10942 10944 10946 10947 10950 10952 10954 10956 10957 10959 10962 10963 10964 10966 10968 10969 10970 10970 10971 10972 10972 10973 10974 10975 10977 10979 10979 10978 10977 10976 10977 10978 10978
10915 10915 10916 10917 10918 10919 10920 10921 10921 10922 10922 10923 10924 10925 10925 10926 10927 10928 10929 10931 10932 10933 10935 10937 10937 10937 10937 10936 10937 10938 10938 10938 10938 10938 10937 10937 10936 10935 10935 10934 10933 10933 10932 10932 10932 10932 10932 10932 10933 10933 10933 10934 10935 10936 10938 10940 10942 10944 10946 10948 10950 10952 10954 10956 10958 10960 10962 10963 10965 10966 10967 10968 10968 10969 10970 10971 10972 10972 10973 10975 10977 10978 10978 10976 10975 10975 10976 10977
10910 10911 10912 10913 10914 10915 10916 10917 10918 10918 10919 10920 10921 10921 10922 10923 10924 10924 10925 10927 10928 10929 10931 10933 10934 10934 10934 10933 10934 10936 10936 10936 10936 10936 10935 10935 10934 10934 10933 10932 10932 10932 10931 10932 10931 10931 10932 10932 10932 10932 10933 10934 10934 10935 10937 10939 10941 10943 10945 10947 10949 10950 10953 10955 10956 10958 10960 10962 10963 10964 10966 10966 10967 10968 10969 10970 10971 10971 10971 10972 10975 10977 10977 10976 10974 10973 10974 10975
10906 10906 10907 10908 10909 10910 10912 10913 10914 10915 10915 10916 10917 10918 10918 10919 10920 10921 10922 10923 10924 10925 10927 10930 10930 10931 10931 10931 10932 10934 10934 10933 10934 10934 10933 10933 10932 10932 10931 10931 10931 10931 10931 10931 10931 10931 10931 10931 10931 10932 10932 10933 10934 10935 10936 10938 10940 10942 10944 10946 10947 10949 10952 10954 10955 10957 10959 10961 10962 10964 10964 10965 10966 10966 10967 10969 10969 10970 10970 10971 10973 10975 10976 10976 10974 10972 10971 10972
10900 10901 10902 10903 10905 10906 10907 10908 10910 10911 10912 10913 10914 10914 10915 10916 10917 10918 10918 10919 10920 10922 10923 10926 10927 10928 10928 10928 10928 10931 10932 10931 10932 10932 10932 10931 10931 10930 10930 10930 10929 10930 10930 10930 10930 10931 10931 10931 10931 10931 10932 10933 10933 10934 10936 10937 10939 10941 10943 10945 10946 10948 10951 10953 10954 10956 10958 10960 10961 10963 10963 10963 10964 10965 10966 10967 10968 10969 10969 10969 10970 10972 10974 10975 10974 10972 10970 10970
10895 10896 10897 10898 10900 10901 10903 10904 10905 10907 10908 10909 10910 10911 10911 10912 10914 10915 10915 10916 10917 10918 10920 10922 10924 10924 10925 10925 10925 10928 10929 10929 10930 10930 10930 10929 10929 10928 10928 10928 10928 10928 10929 10930 10930 10931 10931 10931 10931 10932 10932 10933 10934 10934 10935 10937 10939 10940 10942 10944 10945 10947 10950 10952 10953 10955 10956 10958 10960 10961 10962 10962 10963 10963 10964 10965 10966 10967 10967 10968 10968 10970 10971 10973 10973 10972 10970 10969
10890 10891 10892 10893 10894 10896 10898 10899 10901 10902 10904 10905 10906 10907 10908 10909 10910 10911 10912 10913 10914 10915 10916 10918 10920 10921 10922 10922 10923 10924 10926 10927 10928 10928 10928 10927 10927 10926 10927 10927 10927 10928 10929 10929 10930 10930 10930 10930 10931 10931 10932 10933 10934 10935 10936 10937 10939 10940 10941 10943 10945 10946 10949 10950 10952 10954 10956 10957 10958 10959 10960 10961 10962 10962 10963 10964 10965 10966 10966 10966 10966 10967 10968 10970 10971 10971 10970 10968
10884 10885 10887 10888 10889 10890 10892 10894 10896 10897 10899 10900 10902 10903 10904 10905 10906 10907 10909 10909 10910 10912 10913 10915 10916 10917 10919 10920 10920 10921 10924 10925 10925 10926 10926 10925 10925 10925 10925 10925 10926 10927 10928 10928 10929 10929 10929 10930 10930 10931 10931 10932 10934 10935 10936 10937 10939 10940 10941 10942 10944 10946 10948 10949 10951 10953 10954 10956 10957 10958 10959 10960 10961 10962 10962 10963 10964 10964 10964 10964 10964 10964 10965 10966 10968 10969 10969 10968
10878 10880 10881 10882 10884 10885 10887 10889 10891 10893 10894 10896 10898 10899 10900 10901 10903 10904 10905 10906 10907 10908 10910 10911 10913 10914 10915 10917 10917 10918 10921 10922 10923 10924 10924 10924 10923 10923 10924 10924 10924 10925 10926 10927 10928 10928 10928 10929 10930 10930 10930 10931 10933 10934 10936 10937 10939 10940 10941 10942 10943 10945 10946 10948 10950 10951 10953 10954 10955 10957 10958 10959 10960 10960 10961 10961 10962 10962 10962 10962 10962 10962 10962 10963 10964 10966 10967 10967
10872 10873 10875 10877 10878 10880 10881 10883 10886 10888 10890 10891 10893 10895 10896 10897 10899 10900 10902 10902 10903 10905 10906 10908 10909 10910 10912 10913 10915 10915 10918 10920 10920 10921 10922 10922 10922 10922 10922 10922 10923 10923 10923 10925 10926 10926 10927 10928 10929 10929 10930 10930 10932 10933 10935 10937 10938 10939 10940 10941 10943 10944 10945 10946 10948 10950 10951 10953 10954 10956 10957 10958 10958 10959 10959 10959 10959 10959 10959 10960 10960 10960 10960 10961 10961 10963 10964 10964
10866 10867 10869 10871 10872 10874 10876 10877 10880 10883 10885 10887 10889 10890 10892 10893 10895 10896 10898 10898 10899 10901 10903 10905 10906 10907 10908 10910 10912 10913 10915 10917 10918 10919 10920 10920 10921 10921 10921 10921 10921 10921 10921 10923 10924 10925 10926 10926 10927 10928 10929 10929 10930 10932 10934 10936 10938 10939 10940 10940 10942 10943 10944 10945 10947 10948 10950 10952 10953 10955 10955 10956 10957 10957 10958 10957 10957 10957 10958 10958 10958 10958 10958 10958 10958 10959 10959 10960
10859 10861 10862 10865 10866 10868 10870 10872 10874 10877 10880 10882 10884 10886 10887 10889 10890 10892 10893 10894 10896 10897 10899 10901 10902 10904 10905 10907 10909 10910 10912 10915 10916 10916 10917 10918 10919 10919 10919 10919 10919 10919 10920 10921 10922 10923 10924 10925 10926 10926 10927 10928 10929 10931 10932 10934 10936 10938 10939 10939 10940 10942 10943 10944 10946 10947 10949 10950 10952 10953 10954 10954 10955 10955 10956 10956 10956 10956 10956 10956 10956 10956 10956 10956 10956 10956 10956 10957
10852 10854 10856 10858 10860 10862 10864 10866 10868 10871 10875 10877 10879 10881 10883 10884 10885 10887 10889 10890 10891 10893 10895 10897 10899 10901 10902 10904 10906 10907 10909 10912 10914 10914 10914 10915 10917 10917 10918 10918 10918 10917 10918 10919 10920 10921 10922 10924 10925 10925 10927 10928 10929 10930 10931 10933 10935 10936 10937 10938 10938 10940 10941 10943 10945 10946 10948 10949 10950 10951 10952 10952 10953 10954 10954 10954 10955 10955 10954 10954 10954 10954 10954 10954 10954 10954 10954 10954
10845 10847 10848 10851 10853 10856 10858 10860 10863 10866 10869 10872 10874 10876 10878 10879 10880 10882 10883 10885 10886 10888 10891 10894 10895 10897 10899 10901 10903 10904 10906 10909 10912 10912 10912 10913 10915 10915 10916 10916 10916 10916 10916 10917 10918 10919 10920 10922 10924 10925 10926 10927 10928 10929 10930 10931 10933 10934 10935 10936 10937 10938 10940 10942 10943 10945 10946 10947 10948 10949 10950 10950 10951 10952 10952 10953 10953 10953 10953 10952 10952 10952 10952 10952 10952 10952 10952 10951
10837 10839 10841 10843 10846 10849 10851 10854 10857 10860 10863 10866 10869 10870 10872 10873 10875 10877 10878 10879 10881 10884 10887 10890 10891 10893 10895 10898 10900 10901 10903 10906 10909 10910 10910 10911 10912 10913 10913 10914 10915 10915 10915 10915 10916 10917 10918 10920 10922 10924 10925 10926 10926 10927 10928 10929 10931 10933 10934 10935 10935 10937 10938 10940 10942 10943 10945 10946 10946 10947 10948 10948 10949 10949 10949 10950 10951 10951 10951 10951 10951 10951 10951 10951 10950 10950 10949 10949
10829 10831 10833 10836 10839 10842 10845 10848 10851 10854 10857 10860 10862 10864 10866 10868 10870 10872 10873 10874 10877 10881 10884 10886 10888 10890 10891 10894 10896 10897 10899 10902 10905 10908 10908 10909 10910 10910 10911 10912 10913 10913 10914 10914 10915 10916 10917 10918 10920 10922 10923 10924 10924 10925 10925 10927 10929 10931 10932 10933 10933 10935 10936 10938 10940 10942 10943 10943 10944 10944 10945 10946 10946 10946 10947 10947 10948 10949 10949 10949 10949 10949 10949 10949 10949 10948 10947 10947
10821 10822 10825 10827 10831 10834 10838 10841 10845 10848 10851 10854 10856 10858 10861 10863 10866 10867 10869 10871 10874 10878 10881 10883 10886 10887 10887 10889 10892 10894 10896 10899 10902 10905 10905 10906 10908 10908 10909 10910 10910 10911 10912 10913 10913 10914 10915 10917 10918 10920 10921 10921 10922 10923 10924 10925 10927 10929 10930 10931 10931 10933 10934 10936 10937 10939 10940 10941 10941 10941 10942 10943 10944 10944 10944 10945 10946 10946 10947 10947 10947 10947 10947 10947 10946 10946 10945 10944
10814 10815 10816 10819 10822 10826 10830 10834 10838 10842 10845 10848 10850 10853 10855 10858 10861 10863 10865 10868 10871 10874 10878 10881 10882 10883 10884 10886 10889 10891 10893 10896 10899 10901 10903 10904 10905 10906 10907 10908 10908 10909 10910 10911 10912 10913 10913 10915 10916 10918 10919 10920 10920 10921 10922 10923 10924 10926 10928 10929 10929 10931 10932 10933 10935 10937 10938 10939 10939 10939 10940 10941 10941 10942 10942 10943 10943 10944 10944 10945 10945 10945 10944 10944 10944 10943 10943 10942
10806 10807 10808 10811 10814 10818 10822 10827 10831 10835 10838 10842 10845 10847 10850 10853 10856 10859 10862 10864 10867 10870 10873 10876 10879 10880 10882 10883 10885 10887 10890 10893 10895 10898 10900 10901 10903 10904 10905 10906 10906 10907 10908 10909 10910 10911 10912 10913 10915 10916 10918 10918 10919 10920 10921 10921 10922 10924 10925 10927 10927 10928 10930 10931 10932 10934 10936 10937 10937 10937 10938 10939 10939 10940 10941 10941 10941 10941 10942 10942 10942 10942 10942 10941 10941 10941 10940 10939
10799 10799 10800 10803 10806 10810 10814 10819 10824 10828 10832 10836 10839 10841 10844 10848 10851 10854 10857 10859 10862 10864 10867 10871 10875 10876 10877 10879 10881 10884 10887 10889 10891 10894 10897 10899 10901 10902 10903 10904 10905 10906 10906 10907 10908 10909 10910 10912 10914 10915 10916 10917 10918 10919 10919 10919 10920 10921 10923 10924 10925 10927 10928 10929 10931 10932 10934 10935 10935 10936 10937 10937 10938 10938 10939 10939 10939 10939 10939 10939 10939 10939 10939 10939 10938 10938 10938 10937
10791 10791 10792 10795 10798 10802 10806 10811 10816 10820 10825 10830 10833 10835 10839 10843 10846 10849 10852 10854 10856 10858 10862 10866 10868 10870 10873 10875 10877 10880 10883 10885 10888 10891 10894 10896 10898 10900 10901 10902 10903 10904 10905 10906 10907 10908 10909 10911 10913 10914 10914 10915 10916 10916 10917 10917 10918 10919 10920 10922 10924 10925 10927 10928 10929 10930 10932 10933 10934 10934 10935 10935 10936 10936 10937 10937 10937 10937 10937 10936 10936 10936 10936 10936 10936 10935 10935 10935
10783 10784 10785 10787 10790 10794 10799 10803 10808 10813 10819 10824 10826 10829 10833 10837 10840 10844 10847 10848 10850 10853 10857 10860 10863 10867 10869 10869 10872 10877 10878 10881 10885 10888 10891 10893 10895 10897 10898 10900 10902 10902 10903 10905 10906 10907 10908 10910 10911 10912 10912 10913 10913 10914 10915 10916 10917 10917 10919 10921 10922 10924 10926 10926 10927 10929 10930 10932 10933 10933 10933 10933 10934 10934 10934 10935 10935 10934 10934 10934 10934 10934 10933 10933 10933 10932 10932 10932
10777 10777 10778 10780 10783 10787 10791 10796 10800 10806 10813 10817 10820 10824 10828 10831 10835 10838 10842 10843 10845 10848 10851 10855 10859 10862 10862 10863 10869 10873 10873 10878 10881 10884 10887 10890 10892 10894 10895 10898 10900 10900 10902 10903 10905 10906 10907 10908 10910 10910 10911 10911 10912 10913 10914 10915 10916 10917 10918 10919 10920 10922 10924 10925 10926 10928 10929 10930 10931 10932 10932 10932 10932 10932 10932 10933 10933 10933 10932 10931 10931 10931 10931 10930 10930 10929 10929 10929
10771 10771 10772 10774 10777 10780 10784 10789 10794 10800 10806 10810 10814 10818 10822 10826 10829 10833 10836 10837 10840 10844 10847 10851 10856 10857 10857 10860 10865 10868 10870 10874 10877 10880 10884 10888 10891 10892 10893 10896 10898 10898 10900 10902 10903 10904 10905 10907 10908 10909 10909 10910 10911 10912 10913 10914 10916 10917 10918 10918 10918 10920 10922 10923 10925 10926 10926 10928 10929 10929 10930 10930 10930 10930 10931 10931 10931 10930 10930 10929 10929 10928 10928 10928 10927 10926 10926 10926
10766 10766 10767 10768 10771 10775 10778 10783 10787 10793 10799 10804 10808 10812 10816 10820 10824 10828 10830 10831 10835 10839 10842 10846 10851 10852 10853 10857 10860 10864 10867 10870 10873 10878 10882 10885 10887 10887 10890 10894 10895 10896 10898 10900 10901 10902 10903 10906 10907 10907 10908 10909 10909 10910 10912 10914 10916 10917 10917 10917 10917 10918 10919 10921 10922 10923 10923 10924 10925 10926 10927 10928 10928 10928 10928 10928 10928 10928 10927 10927 10926 10926 10925 10925 10924 10924 10923 10923
10761 10762 10763 10763 10766 10769 10773 10777 10781 10787 10793 10798 10802 10806 10810 10814 10818 10821 10823 10824 10829 10834 10837 10842 10846 10848 10850 10852 10855 10860 10863 10865 10870 10875 10877 10880 10882 10884 10888 10892 10893 10893 10896 10898 10899 10900 10902 10904 10905 10906 10907 10907 10907 10908 10911 10914 10916 10916 10916 10916 10917 10918 10918 10919 10920 10920 10920 10920 10921 10923 10924 10924 10925 10926 10926 10926 10925 10925 10924 10923 10923 10923 10922 10921 10921 10921 10921 10921
10757 10757 10759 10759 10761 10764 10768 10771 10776 10782 10787 10791 10796 10801 10804 10808 10812 10814 10815 10819 10825 10830 10833 10838 10842 10844 10846 10848 10853 10858 10860 10863 10867 10870 10873 10876 10879 10882 10886 10889 10889 10890 10892 10895 10897 10898 10900 10901 10903 10904 10905 10905 10905 10907 10910 10912 10914 10915 10915 10916 10916 10917 10918 10919 10919 10918 10917 10918 10919 10920 10920 10921 10922 10923 10924 10924 10923 10922 10921 10920 10920 10919 10919 10918 10917 10918 10919 10919
10753 10753 10754 10756 10757 10760 10763 10766 10771 10776 10780 10786 10791 10795 10799 10803 10805 10806 10809 10815 10821 10826 10830 10835 10838 10841 10843 10847 10852 10856 10858 10861 10863 10865 10869 10872 10875 10879 10882 10884 10885 10886 10889 10892 10895 10897 10898 10899 10901 10902 10902 10902 10903 10905 10908 10910 10911 10913 10913 10914 10915 10916 10917 10918 10918 10917 10917 10918 10918 10918 10918 10918 10918 10920 10921 10920 10919 10918 10917 10916 10916 10915 10915 10914 10913 10914 10915 10915
10749 10749 10751 10752 10753 10755 10758 10761 10766 10771 10775 10780 10786 10789 10793 10796 10796 10799 10805 10811 10818 10822 10826 10830 10833 10837 10841 10844 10847 10851 10854 10856 10858 10861 10865 10869 10872 10876 10879 10881 10882 10884 10887 10890 10894 10895 10896 10897 10899 10898 10899 10900 10901 10904 10906 10908 10910 10911 10912 10913 10914 10914 10915 10916 10916 10916 10916 10917 10918 10918 10918 10915 10914 10916 10916 10915 10915 10914 10913 10913 10912 10911 10911 10910 10909 10909 10910 10910
10746 10746 10748 10750 10750 10751 10754 10757 10761 10765 10770 10775 10780 10784 10787 10787 10789 10795 10801 10807 10813 10817 10821 10825 10828 10833 10836 10837 10840 10845 10848 10851 10854 10857 10862 10866 10870 10873 10876 10879 10879 10881 10884 10888 10892 10892 10893 10894 10895 10895 10897 10898 10900 10901 10904 10906 10908 10909 10910 10911 10911 10912 10913 10914 10915 10915 10915 10917 10917 10918 10918 10915 10912 10913 10913 10911 10912 10912 10912 10911 10910 10909 10908 10907 10905 10905 10905 10905
10744 10744 10746 10746 10746 10748 10750 10753 10756 10760 10765 10769 10774 10777 10778 10778 10784 10792 10798 10803 10808 10812 10817 10821 10824 10827 10829 10832 10836 10839 10843 10846 10850 10854 10858 10862 10865 10869 10872 10873 10874 10876 10880 10885 10887 10887 10888 10889 10890 10892 10895 10896 10897 10898 10901 10903 10904 10906 10907 10908 10909 10911 10911 10913 10914 10914 10914 10915 10916 10917 10917 10915 10912 10911 10911 10910 10910 10911 10911 10910 10908 10907 10906 10905 10904 10902 10901 10901
10742 10742 10742 10742 10743 10745 10747 10749 10751 10755 10759 10763 10767 10769 10769 10774 10782 10788 10793 10798 10802 10808 10813 10815 10818 10821 10823 10828 10831 10833 10837 10842 10845 10850 10854 10857 10861 10865 10868 10869 10871 10874 10878 10881 10882 10883 10883 10884 10886 10890 10892 10892 10893 10895 10898 10900 10902 10904 10904 10905 10907 10908 10909 10911 10912 10912 10913 10913 10914 10915 10914 10913 10912 10910 10910 10910 10909 10909 10908 10907 10905 10904 10903 10903 10902 10900 10899 10898
10739 10739 10739 10739 10741 10742 10743 10745 10747 10750 10754 10758 10760 10761 10764 10771 10777 10782 10788 10793 10798 10804 10808 10810 10813 10816 10820 10825 10827 10829 10833 10838 10842 10845 10848 10852 10858 10862 10864 10866 10869 10872 10874 10876 10878 10879 10880 10881 10885 10889 10889 10889 10892 10894 10895 10897 10899 10900 10900 10902 10904 10905 10906 10907 10908 10910 10911 10911 10912 10912 10911 10910 10910 10909 10908 10908 10907 10906 10905 10903 10901 10900 10900 10899 10898 10897 10895 10894
10737 10737 10737 10737 10737 10738 10739 10741 10743 10746 10749 10752 10753 10756 10760 10766 10771 10778 10785 10791 10796 10801 10803 10805 10809 10813 10817 10820 10823 10826 10831 10836 10839 10841 10843 10848 10853 10856 10859 10862 10865 10867 10868 10871 10874 10876 10877 10879 10883 10885 10885 10887 10890 10892 10893 10894 10895 10896 10897 10899 10900 10901 10902 10903 10904 10906 10907 10907 10908 10908 10908 10908 10907 10906 10905 10904 10904 10903 10901 10899 10898 10897 10896 10895 10894 10893 10892 10890
10735 10734 10734 10734 10734 10735 10736 10737 10739 10742 10744 10746 10749 10752 10757 10763 10769 10777 10783 10788 10792 10796 10798 10801 10805 10810 10813 10816 10820 10824 10827 10831 10835 10837 10840 10844 10847 10850 10853 10856 10859 10861 10863 10867 10870 10872 10874 10877 10878 10880 10882 10885 10887 10888 10889 10890 10891 10892 10894 10895 10896 10896 10898 10899 10900 10901 10902 10904 10905 10905 10906 10905 10904 10903 10902 10901 10900 10899 10898 10897 10896 10894 10892 10891 10890 10889 10888 10887
10733 10732 10731 10731 10731 10732 10733 10734 10736 10738 10740 10743 10746 10750 10755 10761 10767 10774 10779 10782 10786 10790 10792 10795 10800 10804 10808 10812 10816 10819 10822 10826 10830 10834 10838 10841 10843 10846 10848 10851 10854 10856 10858 10862 10865 10868 10872 10874 10875 10877 10879 10881 10883 10885 10885 10886 10887 10888 10889 10891 10892 10893 10894 10895 10896 10898 10899 10900 10901 10902 10902 10902 10900 10899 10898 10897 10896 10895 10894 10893 10892 10890 10889 10887 10886 10885 10883 10882
10730 10729 10729 10728 10729 10729 10730 10731 10733 10734 10737 10741 10744 10748 10753 10757 10762 10768 10772 10775 10779 10783 10786 10789 10794 10799 10803 10807 10812 10815 10818 10822 10825 10830 10834 10837 10840 10842 10845 10848 10849 10850 10854 10858 10862 10866 10869 10870 10871 10873 10876 10878 10880 10880 10881 10882 10884 10885 10886 10887 10889 10889 10890 10891 10892 10894 10895 10896 10897 10898 10898 10897 10896 10895 10894 10893 10892 10891 10890 10889 10887 10886 10884 10883 10881 10880 10879 10879
10728 10727 10726 10726 10727 10727 10728 10728 10729 10731 10735 10738 10741 10745 10748 10751 10757 10763 10766 10769 10773 10777 10780 10784 10789 10794 10798 10803 10808 10811 10815 10819 10822 10826 10829 10831 10834 10836 10839 10841 10843 10847 10851 10854 10857 10860 10862 10864 10867 10870 10873 10874 10875 10876 10877 10878 10881 10882 10883 10884 10885 10885 10885 10886 10887 10890 10891 10892 10893 10894 10894 10893 10892 10890 10890 10889 10888 10887 10886 10885 10883 10881 10880 10878 10876 10875 10875 10875
10725 10724 10724 10724 10725 10725 10726 10727 10728 10729 10731 10733 10736 10738 10741 10746 10753 10758 10760 10764 10768 10773 10776 10780 10785 10789 10794 10799 10804 10807 10811 10815 10818 10821 10822 10825 10828 10830 10833 10837 10840 10844 10847 10851 10854 10856 10859 10863 10866 10868 10870 10871 10872 10873 10874 10875 10877 10878 10879 10881 10880 10880 10881 10881 10882 10885 10887 10888 10889 10890 10889 10888 10887 10886 10885 10884 10884 10883 10882 10880 10879 10877 10875 10873 10872 10871 10871 10871
10723 10721 10722 10723 10723 10723 10723 10723 10725 10727 10728 10729 10731 10733 10737 10743 10748 10752 10755 10759 10764 10769 10773 10777 10782 10786 10791 10797 10802 10805 10808 10811 10813 10815 10818 10822 10825 10827 10831 10835 10838 10842 10846 10849 10851 10853 10857 10860 10862 10864 10866 10868 10869 10870 10870 10871 10872 10874 10875 10876 10876 10876 10877 10877 10878 10880 10881 10883 10885 10885 10885 10884 10883 10881 10880 10879 10879 10878 10877 10876 10874 10872 10870 10869 10868 10867 10868 10867
10720 10719 10720 10721 10721 10720 10720 10720 10721 10723 10725 10726 10728 10730 10735 10740 10744 10747 10751 10755 10761 10767 10770 10775 10779 10783 10789 10795 10798 10802 10805 10807 10809 10811 10814 10818 10821 10826 10830 10832 10835 10839 10842 10844 10845 10847 10852 10855 10857 10860 10863 10864 10865 10865 10865 10866 10868 10870 10870 10871 10872 10872 10872 10873 10874 10875 10876 10878 10879 10880 10880 10880 10878 10876 10875 10874 10873 10873 10872 10871 10870 10868 10866 10865 10864 10864 10864 10864
10717 10718 10718 10718 10718 10717 10717 10717 10718 10720 10720 10722 10726 10729 10733 10738 10741 10744 10749 10753 10758 10763 10766 10771 10775 10779 10784 10789 10792 10795 10798 10800 10803 10806 10809 10811 10815 10822 10825 10827 10831 10833 10835 10837 10839 10843 10848 10850 10852 10855 10858 10859 10860 10859 10861 10863 10865 10865 10865 10866 10867 10867 10868 10869 10870 10871 10872 10873 10874 10875 10875 10875 10873 10872 10870 10869 10868 10867 10867 10867 10865 10864 10863 10862 10861 10861 10861 10861
10715 10716 10716 10716 10716 10715 10714 10715 10716 10716 10717 10719 10723 10726 10730 10735 10738 10742 10746 10750 10753 10758 10762 10766 10769 10773 10778 10782 10785 10789 10792 10795 10798 10801 10803 10805 10809 10816 10819 10823 10826 10828 10829 10832 10835 10839 10843 10845 10847 10849 10851 10853 10855 10856 10857 10858 10859 10860 10861 10861 10861 10862 10863 10864 10866 10867 10868 10869 10869 10870 10871 10870 10868 10867 10865 10864 10864 10863 10863 10862 10861 10860 10859 10858 10858 10857 10857 10857
10712 10714 10714 10713 10713 10713 10712 10713 10713 10713 10714 10717 10720 10723 10727 10731 10734 10738 10743 10746 10749 10754 10758 10761 10764 10768 10772 10776 10780 10785 10788 10791 10794 10796 10798 10800 10805 10811 10815 10819 10822 10824 10826 10829 10832 10836 10840 10840 10841 10843 10845 10848 10851 10851 10851 10852 10853 10854 10855 10856 10857 10857 10858 10860 10862 10863 10864 10864 10864 10865 10866 10864 10862 10861 10861 10860 10860 10859 10858 10858 10856 10856 10855 10855 10854 10854 10854 10853
10710 10711 10712 10711 10710 10710 10711 10711 10711 10711 10713 10715 10717 10719 10722 10727 10730 10733 10737 10741 10746 10751 10754 10756 10759 10763 10767 10771 10775 10780 10783 10785 10788 10792 10794 10796 10801 10805 10810 10814 10818 10821 10823 10825 10827 10832 10835 10835 10837 10839 10841 10843 10846 10846 10846 10847 10847 10848 10849 10851 10852 10853 10855 10856 10857 10858 10859 10859 10859 10860 10860 10859 10857 10856 10855 10855 10854 10854 10853 10853 10852 10851 10851 10851 10851 10851 10850 10850
10707 10709 10710 10710 10708 10708 10709 10709 10709 10709 10710 10712 10714 10716 10719 10722 10725 10728 10732 10738 10743 10747 10749 10752 10754 10757 10762 10766 10770 10775 10778 10780 10784 10787 10788 10792 10796 10799 10804 10809 10813 10816 10818 10819 10822 10826 10829 10830 10832 10835 10836 10838 10841 10842 10842 10842 10843 10844 10844 10845 10847 10849 10851 10852 10852 10853 10854 10855 10855 10856 10855 10854 10852 10851 10850 10849 10849 10848 10848 10848 10848 10848 10848 10847 10847 10846 10845 10845
10705 10706 10708 10708 10707 10706 10707 10707 10708 10707 10708 10709 10711 10713 10716 10719 10720 10723 10728 10734 10738 10741 10744 10747 10749 10753 10757 10761 10766 10770 10773 10776 10779 10782 10784 10787 10791 10795 10799 10803 10806 10809 10811 10812 10816 10820 10823 10824 10827 10830 10832 10833 10836 10837 10838 10839 10839 10839 10839 10841 10843 10845 10846 10847 10848 10848 10849 10850 10850 10851 10850 10849 10848 10847 10845 10844 10843 10843 10843 10844 10844 10844 10844 10843 10842 10841 10840 10839
10703 10704 10705 10706 10706 10705 10705 10705 10706 10706 10706 10707 10709 10710 10713 10715 10717 10720 10725 10729 10732 10736 10739 10742 10745 10749 10754 10758 10762 10766 10769 10772 10775 10778 10780 10782 10785 10790 10795 10797 10799 10801 10804 10806 10809 10813 10816 10818 10821 10824 10826 10828 10831 10832 10832 10833 10833 10833 10835 10838 10839 10840 10841 10842 10843 10843 10844 10845 10844 10844 10845 10845 10843 10842 10841 10839 10839 10839 10839 10839 10839 10839 10839 10839 10838 10837 10836 10835